BER109 ESGG-EDDH

Flight info

Callsign BER109
Flight time 0h 54m
Altitude 34000
Route VADIN DCT ALASA/N0443F350 M852 EKERN/N0388F230 T905 BOGMU BOGMU3N
Aircraft B738/M-SDE2E3FGHIRWXY/LB1

Departure

Time 2026-04-21 16:19
Airport Göteborg Landvetter Airport (ESGG)

Arrival

Time 2026-04-21 17:14
Airport Hamburg Helmut Schmidt Airport (EDDH)
Time Latitude Longitude Altitude Speed Heading
2026-04-21 15:55 57.66888 12.29422 515 ft 0 kts 116°
2026-04-21 16:08 57.66901 12.29373 515 ft 4 kts 116°
2026-04-21 16:08 57.66910 12.29336 515 ft 4 kts 110°
2026-04-21 16:08 57.66911 12.29296 515 ft 4 kts 48°
2026-04-21 16:09 57.66899 12.29279 515 ft 4 kts 26°
2026-04-21 16:09 57.66885 12.29267 515 ft 1 kts 26°
2026-04-21 16:12 57.66886 12.29267 515 ft 0 kts 27°
2026-04-21 16:12 57.66886 12.29273 515 ft 0 kts 61°
2026-04-21 16:12 57.66885 12.29279 515 ft 1 kts 100°
2026-04-21 16:13 57.66878 12.29281 515 ft 1 kts 174°
2026-04-21 16:13 57.66859 12.29251 515 ft 8 kts 220°
2026-04-21 16:13 57.66793 12.29183 515 ft 12 kts 205°
2026-04-21 16:13 57.66771 12.29141 515 ft 3 kts 271°
2026-04-21 16:14 57.66781 12.29078 515 ft 11 kts 292°
2026-04-21 16:14 57.66817 12.28938 515 ft 11 kts 296°
2026-04-21 16:14 57.66807 12.28804 512 ft 12 kts 214°
2026-04-21 16:14 57.66686 12.28693 511 ft 26 kts 207°
2026-04-21 16:15 57.66525 12.28546 511 ft 25 kts 206°
2026-04-21 16:15 57.66374 12.28408 510 ft 23 kts 205°
2026-04-21 16:15 57.66232 12.28278 509 ft 22 kts 206°
2026-04-21 16:15 57.66093 12.28153 508 ft 22 kts 204°
2026-04-21 16:16 57.65959 12.28030 507 ft 21 kts 205°
2026-04-21 16:16 57.65828 12.27912 505 ft 21 kts 206°
2026-04-21 16:16 57.65700 12.27795 503 ft 23 kts 206°
2026-04-21 16:16 57.65543 12.27652 501 ft 30 kts 206°
2026-04-21 16:17 57.65358 12.27483 491 ft 29 kts 206°
2026-04-21 16:17 57.65183 12.27324 488 ft 27 kts 206°
2026-04-21 16:17 57.65019 12.27176 489 ft 25 kts 205°
2026-04-21 16:17 57.64893 12.27062 484 ft 14 kts 210°
2026-04-21 16:18 57.64890 12.26916 483 ft 13 kts 319°
2026-04-21 16:18 57.64969 12.26840 483 ft 13 kts 352°
2026-04-21 16:18 57.65055 12.26866 486 ft 13 kts 25°
2026-04-21 16:18 57.65080 12.26888 486 ft 0 kts 26°
2026-04-21 16:19 57.65090 12.26898 485 ft 14 kts 26°
2026-04-21 16:19 57.65440 12.27219 494 ft 96 kts 26°
2026-04-21 16:19 57.66246 12.27947 582 ft 153 kts 25°
2026-04-21 16:19 57.67192 12.28824 1600 ft 144 kts 24°
2026-04-21 16:20 57.68085 12.29658 2592 ft 147 kts 25°
2026-04-21 16:20 57.69104 12.30560 3125 ft 180 kts 28°
2026-04-21 16:20 57.70036 12.32337 3555 ft 205 kts 66°
2026-04-21 16:20 57.70038 12.35015 4341 ft 213 kts 104°
2026-04-21 16:21 57.69574 12.37660 4795 ft 214 kts 105°
2026-04-21 16:21 57.69108 12.40320 5012 ft 217 kts 105°
2026-04-21 16:21 57.68534 12.42948 5494 ft 223 kts 123°
2026-04-21 16:21 57.67315 12.44809 6268 ft 240 kts 154°
2026-04-21 16:22 57.65583 12.45607 6649 ft 271 kts 169°
2026-04-21 16:22 57.63668 12.46042 7434 ft 280 kts 171°
2026-04-21 16:22 57.61714 12.46412 8349 ft 285 kts 176°
2026-04-21 16:22 57.59751 12.45715 9261 ft 293 kts 201°
2026-04-21 16:23 57.57899 12.44056 10168 ft 298 kts 206°
2026-04-21 16:23 57.56027 12.42246 10827 ft 312 kts 206°
2026-04-21 16:23 57.54017 12.40299 11045 ft 339 kts 206°
2026-04-21 16:23 57.51864 12.38238 11497 ft 355 kts 206°
2026-04-21 16:24 57.49641 12.36139 12283 ft 360 kts 206°
2026-04-21 16:24 57.47399 12.34042 13149 ft 363 kts 205°
2026-04-21 16:24 57.45128 12.31916 13975 ft 368 kts 207°
2026-04-21 16:24 57.43072 12.29043 14690 ft 375 kts 227°
2026-04-21 16:25 57.41385 12.25335 15461 ft 378 kts 230°
2026-04-21 16:25 57.39709 12.21532 16178 ft 382 kts 231°
2026-04-21 16:25 57.38067 12.17804 16855 ft 388 kts 230°
2026-04-21 16:25 57.36383 12.14003 17561 ft 391 kts 230°
2026-04-21 16:26 57.34636 12.10095 18275 ft 396 kts 230°
2026-04-21 16:26 57.32861 12.06151 18923 ft 401 kts 230°
2026-04-21 16:26 57.31065 12.02180 19533 ft 405 kts 229°
2026-04-21 16:26 57.29244 11.98166 20142 ft 408 kts 229°
2026-04-21 16:27 57.27409 11.94131 20731 ft 413 kts 229°
2026-04-21 16:27 57.25552 11.90054 21337 ft 416 kts 229°
2026-04-21 16:27 57.23676 11.85942 21921 ft 420 kts 229°
2026-04-21 16:27 57.21784 11.81800 22498 ft 424 kts 229°
2026-04-21 16:28 57.19875 11.77629 23067 ft 427 kts 229°
2026-04-21 16:28 57.17948 11.73423 23624 ft 431 kts 229°
2026-04-21 16:28 57.16001 11.69185 24129 ft 435 kts 229°
2026-04-21 16:28 57.13928 11.65109 24500 ft 438 kts 218°
2026-04-21 16:29 57.11334 11.62241 24994 ft 435 kts 201°
2026-04-21 16:29 57.08548 11.60083 25540 ft 435 kts 200°
2026-04-21 16:29 57.05736 11.57989 25965 ft 438 kts 199°
2026-04-21 16:29 57.02894 11.55890 26369 ft 442 kts 199°
2026-04-21 16:30 57.00073 11.53797 26789 ft 445 kts 199°
2026-04-21 16:30 56.97206 11.51651 27227 ft 447 kts 200°
2026-04-21 16:30 56.94313 11.49470 27647 ft 450 kts 200°
2026-04-21 16:30 56.91409 11.47269 28055 ft 452 kts 200°
2026-04-21 16:31 56.88495 11.45058 28454 ft 455 kts 200°
2026-04-21 16:31 56.85562 11.42830 28843 ft 458 kts 200°
2026-04-21 16:31 56.82609 11.40590 29219 ft 460 kts 200°
2026-04-21 16:31 56.79649 11.38349 29589 ft 463 kts 200°
2026-04-21 16:32 56.76662 11.36091 29942 ft 465 kts 200°
2026-04-21 16:32 56.73673 11.33836 30293 ft 467 kts 200°
2026-04-21 16:32 56.70661 11.31569 30646 ft 468 kts 200°
2026-04-21 16:32 56.67651 11.29306 31072 ft 467 kts 200°
2026-04-21 16:33 56.64659 11.27060 31536 ft 464 kts 200°
2026-04-21 16:33 56.61681 11.24828 31967 ft 463 kts 200°
2026-04-21 16:33 56.58705 11.22603 32336 ft 463 kts 200°
2026-04-21 16:33 56.55730 11.20384 32710 ft 462 kts 200°
2026-04-21 16:34 56.52760 11.18171 33110 ft 461 kts 200°
2026-04-21 16:34 56.49798 11.15969 33521 ft 460 kts 200°
2026-04-21 16:34 56.46842 11.13774 33907 ft 459 kts 200°
2026-04-21 16:34 56.43890 11.11586 34270 ft 458 kts 200°
2026-04-21 16:35 56.40970 11.09426 34376 ft 461 kts 200°
2026-04-21 16:35 56.35037 11.05048 34383 ft 459 kts 200°
2026-04-21 16:36 56.29147 11.00714 34379 ft 456 kts 200°
2026-04-21 16:36 56.23276 10.96410 34383 ft 455 kts 200°
2026-04-21 16:37 56.17421 10.92132 34379 ft 454 kts 200°
2026-04-21 16:37 56.11559 10.87863 34384 ft 455 kts 200°
2026-04-21 16:38 56.05690 10.83603 34387 ft 456 kts 200°
2026-04-21 16:38 55.99799 10.79342 34392 ft 457 kts 200°
2026-04-21 16:39 55.93901 10.75088 34391 ft 458 kts 200°
2026-04-21 16:39 55.87981 10.70833 34390 ft 459 kts 200°
2026-04-21 16:40 55.82052 10.66585 34393 ft 460 kts 200°
2026-04-21 16:40 55.76110 10.62342 34395 ft 460 kts 200°
2026-04-21 16:41 55.71167 10.58823 34390 ft 461 kts 199°
2026-04-21 16:41 55.64217 10.53892 34397 ft 460 kts 199°
2026-04-21 16:42 55.58271 10.49687 34401 ft 460 kts 199°
2026-04-21 16:42 55.52332 10.45502 34407 ft 459 kts 199°
2026-04-21 16:43 55.46454 10.41373 34397 ft 458 kts 199°
2026-04-21 16:43 55.40541 10.37233 34394 ft 457 kts 199°
2026-04-21 16:44 55.34637 10.33112 34396 ft 456 kts 199°
2026-04-21 16:44 55.28900 10.29121 34393 ft 455 kts 199°
2026-04-21 16:44 55.25949 10.27073 34063 ft 459 kts 199°
2026-04-21 16:45 55.22981 10.25016 33459 ft 457 kts 199°
2026-04-21 16:45 55.20030 10.22973 32994 ft 452 kts 199°
2026-04-21 16:45 55.17122 10.20963 32486 ft 448 kts 199°
2026-04-21 16:45 55.14232 10.18968 32014 ft 444 kts 199°
2026-04-21 16:46 55.11373 10.16999 31554 ft 440 kts 198°
2026-04-21 16:46 55.08540 10.15051 31096 ft 436 kts 198°
2026-04-21 16:46 55.05725 10.13118 30652 ft 433 kts 198°
2026-04-21 16:46 55.02928 10.11201 30141 ft 430 kts 198°
2026-04-21 16:47 55.00161 10.09307 29644 ft 425 kts 198°
2026-04-21 16:47 54.97420 10.07433 29181 ft 421 kts 198°
2026-04-21 16:47 54.94705 10.05580 28712 ft 416 kts 198°
2026-04-21 16:47 54.92023 10.03752 28250 ft 412 kts 198°
2026-04-21 16:48 54.89364 10.01943 27786 ft 409 kts 198°
2026-04-21 16:48 54.86726 10.00150 27340 ft 405 kts 198°
2026-04-21 16:48 54.84119 9.98380 26877 ft 402 kts 198°
2026-04-21 16:48 54.81513 9.96632 26431 ft 398 kts 195°
2026-04-21 16:49 54.78869 9.95396 26056 ft 389 kts 186°
2026-04-21 16:49 54.76223 9.94555 25648 ft 386 kts 186°
2026-04-21 16:49 54.73747 9.93803 25240 ft 384 kts 186°
2026-04-21 16:49 54.71166 9.93002 24821 ft 382 kts 186°
2026-04-21 16:50 54.68554 9.92164 24389 ft 380 kts 186°
2026-04-21 16:50 54.65961 9.91320 23958 ft 379 kts 186°
2026-04-21 16:50 54.63381 9.90483 23460 ft 377 kts 186°
2026-04-21 16:50 54.60803 9.89656 22993 ft 375 kts 186°
2026-04-21 16:51 54.58249 9.88839 22579 ft 371 kts 186°
2026-04-21 16:51 54.55714 9.88030 22146 ft 369 kts 186°
2026-04-21 16:51 54.53201 9.87268 21722 ft 365 kts 182°
2026-04-21 16:51 54.50701 9.87291 21329 ft 355 kts 168°
2026-04-21 16:52 54.48324 9.88227 20873 ft 348 kts 156°
2026-04-21 16:52 54.46127 9.89892 20471 ft 343 kts 150°
2026-04-21 16:52 54.44699 9.91066 20190 ft 342 kts 150°
2026-04-21 16:52 54.41840 9.93448 19646 ft 340 kts 150°
2026-04-21 16:53 54.39718 9.95210 19249 ft 339 kts 150°
2026-04-21 16:53 54.37592 9.96961 18847 ft 338 kts 150°
2026-04-21 16:53 54.35475 9.98696 18408 ft 337 kts 150°
2026-04-21 16:53 54.33359 10.00420 17961 ft 335 kts 150°
2026-04-21 16:54 54.31260 10.02124 17551 ft 333 kts 150°
2026-04-21 16:54 54.29167 10.03819 17155 ft 331 kts 150°
2026-04-21 16:54 54.27093 10.05496 16753 ft 329 kts 150°
2026-04-21 16:54 54.25030 10.07161 16361 ft 327 kts 150°
2026-04-21 16:55 54.22981 10.08814 15975 ft 325 kts 150°
2026-04-21 16:55 54.20941 10.10458 15590 ft 323 kts 150°
2026-04-21 16:55 54.18913 10.12090 15210 ft 321 kts 150°
2026-04-21 16:55 54.16900 10.13708 14832 ft 319 kts 150°
2026-04-21 16:56 54.14896 10.15317 14447 ft 318 kts 150°
2026-04-21 16:56 54.12902 10.16916 14074 ft 316 kts 150°
2026-04-21 16:56 54.10940 10.18489 13665 ft 314 kts 150°
2026-04-21 16:56 54.08965 10.20071 13276 ft 312 kts 150°
2026-04-21 16:57 54.07008 10.21637 12887 ft 310 kts 150°
2026-04-21 16:57 54.05063 10.23189 12517 ft 307 kts 150°
2026-04-21 16:57 54.03760 10.24228 12263 ft 306 kts 150°
2026-04-21 16:57 54.01136 10.25969 11740 ft 310 kts 167°
2026-04-21 16:58 53.99669 10.26024 11495 ft 315 kts 184°
2026-04-21 16:58 53.97604 10.24780 11283 ft 319 kts 210°
2026-04-21 16:58 53.96021 10.22211 11138 ft 326 kts 234°
2026-04-21 16:58 53.94916 10.18757 11032 ft 339 kts 242°
2026-04-21 16:59 53.93893 10.15130 10856 ft 341 kts 244°
2026-04-21 16:59 53.92898 10.11507 10683 ft 332 kts 244°
2026-04-21 16:59 53.91948 10.08051 10524 ft 316 kts 243°
2026-04-21 16:59 53.91035 10.04759 10369 ft 302 kts 243°
2026-04-21 17:00 53.90147 10.01591 10248 ft 295 kts 243°
2026-04-21 17:00 53.89267 9.98477 10112 ft 292 kts 243°
2026-04-21 17:00 53.88384 9.95369 9985 ft 292 kts 242°
2026-04-21 17:00 53.87501 9.92273 9870 ft 292 kts 243°
2026-04-21 17:01 53.86614 9.89171 9728 ft 294 kts 243°
2026-04-21 17:01 53.85715 9.86033 9612 ft 296 kts 243°
2026-04-21 17:01 53.84814 9.82891 9492 ft 296 kts 243°
2026-04-21 17:01 53.83971 9.79956 9336 ft 296 kts 243°
2026-04-21 17:02 53.83073 9.76831 9216 ft 295 kts 242°
2026-04-21 17:02 53.82174 9.73712 9084 ft 295 kts 242°
2026-04-21 17:02 53.81276 9.70598 8953 ft 294 kts 242°
2026-04-21 17:02 53.80378 9.67486 8818 ft 294 kts 242°
2026-04-21 17:03 53.79483 9.64390 8703 ft 293 kts 242°
2026-04-21 17:03 53.78586 9.61289 8562 ft 292 kts 242°
2026-04-21 17:03 53.77688 9.58246 8346 ft 287 kts 237°
2026-04-21 17:03 53.76365 9.55870 8122 ft 270 kts 208°
2026-04-21 17:04 53.74660 9.54840 7746 ft 257 kts 179°
2026-04-21 17:04 53.72992 9.55307 7428 ft 240 kts 150°
2026-04-21 17:04 53.71567 9.56650 7161 ft 232 kts 144°
2026-04-21 17:04 53.70187 9.58042 6815 ft 231 kts 144°
2026-04-21 17:05 53.68686 9.59105 6426 ft 238 kts 168°
2026-04-21 17:05 53.67028 9.58744 6076 ft 246 kts 198°
2026-04-21 17:05 53.65471 9.57502 5720 ft 249 kts 203°
2026-04-21 17:05 53.63940 9.56180 5559 ft 244 kts 200°
2026-04-21 17:06 53.62316 9.55671 5235 ft 236 kts 167°
2026-04-21 17:06 53.60790 9.56377 5101 ft 220 kts 155°
2026-04-21 17:06 53.59401 9.57236 4886 ft 212 kts 154°
2026-04-21 17:06 53.58004 9.58119 4540 ft 211 kts 154°
2026-04-21 17:07 53.56620 9.58995 4232 ft 213 kts 154°
2026-04-21 17:07 53.55262 9.59860 4076 ft 212 kts 154°
2026-04-21 17:07 53.53909 9.60838 3988 ft 209 kts 140°
2026-04-21 17:07 53.52985 9.62623 3746 ft 199 kts 116°
2026-04-21 17:08 53.52326 9.64630 3530 ft 197 kts 114°
2026-04-21 17:08 53.51683 9.66652 3279 ft 198 kts 114°
2026-04-21 17:08 53.51092 9.68715 3110 ft 195 kts 102°
2026-04-21 17:08 53.51026 9.70941 3043 ft 189 kts 85°
2026-04-21 17:09 53.51533 9.74844 2999 ft 162 kts 55°
2026-04-21 17:09 53.52174 9.76424 2998 ft 165 kts 60°
2026-04-21 17:09 53.52832 9.78029 2989 ft 170 kts 55°
2026-04-21 17:10 53.53575 9.79588 2835 ft 173 kts 53°
2026-04-21 17:10 53.54339 9.81149 2610 ft 172 kts 53°
2026-04-21 17:10 53.55092 9.82679 2372 ft 167 kts 52°
2026-04-21 17:10 53.55795 9.84111 2165 ft 153 kts 52°
2026-04-21 17:11 53.56453 9.85449 1943 ft 144 kts 52°
2026-04-21 17:11 53.57087 9.86739 1737 ft 143 kts 52°
2026-04-21 17:11 53.57721 9.88028 1548 ft 140 kts 51°
2026-04-21 17:11 53.58328 9.89266 1339 ft 135 kts 51°
2026-04-21 17:12 53.58922 9.90471 1143 ft 134 kts 52°
2026-04-21 17:12 53.59515 9.91676 968 ft 131 kts 52°
2026-04-21 17:12 53.60104 9.92874 710 ft 132 kts 49°
2026-04-21 17:12 53.60685 9.94052 497 ft 126 kts 51°
2026-04-21 17:13 53.61233 9.95168 314 ft 121 kts 51°
2026-04-21 17:13 53.61769 9.96256 157 ft 123 kts 51°
2026-04-21 17:13 53.62318 9.97361 41 ft 121 kts 51°
2026-04-21 17:13 53.62776 9.98295 42 ft 83 kts 50°
2026-04-21 17:14 53.63054 9.98858 45 ft 48 kts 51°
2026-04-21 17:14 53.63240 9.99236 46 ft 23 kts 51°
2026-04-21 17:14 53.63290 9.99478 46 ft 22 kts 88°
2026-04-21 17:14 53.63280 9.99620 47 ft 0 kts 99°
2026-04-21 17:15 53.63273 9.99683 47 ft 10 kts 110°
2026-04-21 17:15 53.63219 9.99762 47 ft 11 kts 152°
2026-04-21 17:15 53.63155 9.99819 47 ft 10 kts 151°
2026-04-21 17:16 53.63082 9.99882 45 ft 16 kts 152°
2026-04-21 17:16 53.62989 9.99962 47 ft 10 kts 153°
2026-04-21 17:16 53.62955 10.00048 47 ft 10 kts 65°
2026-04-21 17:16 53.63009 10.00120 47 ft 10 kts 32°
2026-04-21 17:17 53.63051 10.00165 46 ft 1 kts 32°
2026-04-21 17:17 53.63069 10.00190 44 ft 7 kts 49°
2026-04-21 17:17 53.63077 10.00277 47 ft 8 kts 92°
2026-04-21 17:17 53.63074 10.00361 47 ft 3 kts 93°
2026-04-21 17:18 53.63073 10.00384 47 ft 1 kts 92°
2026-04-21 17:18 53.63073 10.00388 47 ft 0 kts 92°